User: anonymous   Login
Location: Bats
(43.6587°N, 0.4584°W)
Time: 15:04:02
(UTC+00:00)
Language:

Nadezhda 3 Rocket - Orbit

View from above orbital plane
View from above orbital plane
View from above satellite
View from above satellite

Ground track
Ground track

The orbit is defined by the following mean orbital elements,

1 21153U          26076.17013823 +.00000000 +00000-0 +68625-4 0 00002
2 21153  82.9296 345.5043 0027957 222.2427 248.8296 13.76345125    01
Epoch (UTC): 17 March 2026 04:04:59
Eccentricity: 0.0027957
inclination: 82.9296°
perigee height: 956 km
apogee height: 997 km
right ascension of ascending node: 345.5043°
argument of perigee: 222.2427°
revolutions per day: 13.76345125
mean anomaly at epoch: 248.8296°

The dashed part of the orbit path shows where the satellite is in the earth's shadow,  

DLR